DW9855 Weather Reports


time (UTC)temp
C
wind
direction
speed
KPH
gust
KPH
rain 1hr
cm
rain 24hr
cm
rain mn
cm
humidity
%
barometer
mb
20260510190040 13 34 6.4 17.7 0.00 0.00 0.00 55 1014.8
20260510184654 13 31 3.2 16.1 0.00 0.00 0.00 54 1014.8
20260510183053 13 29 3.2 14.5 0.00 0.00 0.00 55 1014.8
20260510181552 13 40 4.8 20.9 0.00 0.00 0.00 56 1014.9
20260510174542 13 38 6.4 20.9 0.00 0.00 0.00 57 1015.0
20260510173040 12 22 11.3 24.1 0.00 0.00 0.00 58 1015.1
20260510171539 12 29 9.7 20.9 0.00 0.00 0.00 57 1015.2
20260510170043 13 33 11.3 25.7 0.00 0.00 0.00 57 1015.3
20260510164558 13 38 9.7 25.7 0.00 0.00 0.00 59 1015.3
20260510163057 12 34 11.3 24.1 0.00 0.00 0.00 59 1015.5
20260510161552 12 30 9.7 27.4 0.00 0.00 0.00 60 1015.7
20260510160051 12 32 12.9 22.5 0.00 0.00 0.00 61 1015.9
20260510154555 12 24 8.0 22.5 0.00 0.00 0.00 62 1016.1
20260510153047 12 26 11.3 25.7 0.00 0.00 0.00 63 1016.2
20260510151553 12 32 12.9 22.5 0.00 0.00 0.00 66 1016.4
20260510150045 12 30 4.8 20.9 0.00 0.00 0.00 66 1016.5
20260510144554 12 36 9.7 22.5 0.00 0.00 0.00 67 1016.7
20260510143052 12 39 16.1 25.7 0.00 0.00 0.00 66 1016.9
20260510141535 12 27 4.8 24.1 0.00 0.00 0.00 68 1017.2
20260510140034 11 23 8.0 29.0 0.00 0.00 0.00 68 1017.3
20260510134548 11 27 6.4 25.7 0.00 0.00 0.00 69 1017.3
20260510133048 11 71 14.5 29.0 0.00 0.00 0.00 69 1017.3
20260510131549 11 29 11.3 24.1 0.00 0.00 0.00 70 1017.3
20260510130044 11 24 8.0 25.7 0.00 0.00 0.00 71 1017.4
20260510124541 11 33 12.9 30.6 0.00 0.00 0.00 71 1017.5
20260510123043 11 35 6.4 25.7 0.00 0.00 0.00 72 1017.7
20260510121539 11 35 9.7 30.6 0.00 0.00 0.00 73 1017.7
20260510120037 11 30 16.1 33.8 0.00 0.00 0.00 72 1017.8
20260510114549 11 5 9.7 29.0 0.00 0.00 0.00 75 1018.0
20260510113054 10 46 12.9 27.4 0.00 0.00 0.00 76 1018.2
20260510111546 11 36 16.1 29.0 0.00 0.00 0.00 76 1018.4
20260510110050 10 34 11.3 27.4 0.00 0.00 0.00 77 1018.4
20260510104541 10 35 12.9 30.6 0.00 0.00 0.00 77 1018.5
20260510103040 10 31 9.7 30.6 0.00 0.00 0.00 79 1018.6
20260510101538 10 34 12.9 38.6 0.00 0.00 0.00 80 1018.7
20260510100037 10 34 16.1 27.4 0.00 0.00 0.00 80 1018.7
20260510094551 10 26 14.5 25.7 0.00 0.00 0.00 80 1018.7
20260510093048 10 32 14.5 29.0 0.00 0.00 0.00 79 1018.7
20260510091548 10 31 16.1 27.4 0.00 0.00 0.00 79 1018.8
20260510090048 10 30 9.7 27.4 0.00 0.00 0.00 76 1018.8
20260510084543 11 18 9.7 27.4 0.00 0.00 0.00 76 1019.0
20260510083042 11 33 16.1 33.8 0.00 0.00 0.00 76 1019.1
20260510081541 10 32 8.0 30.6 0.00 0.00 0.00 78 1018.9
20260510080054 10 34 11.3 30.6 0.00 0.00 0.00 80 1018.9
20260510074553 10 33 14.5 29.0 0.00 0.00 0.00 79 1018.8
20260510073111 10 40 11.3 29.0 0.00 0.00 0.00 81 1018.8
20260510071550 10 37 16.1 27.4 0.00 0.00 0.00 79 1018.8
20260510070056 10 30 11.3 24.1 0.00 0.00 0.00 80 1018.7
20260510064600 9 30 6.4 25.7 0.00 0.00 0.00 82 1018.8
20260510063042 8 33 12.9 27.4 0.00 0.00 0.00 83 1018.8
20260510061540 8 16 3.2 17.7 0.00 0.00 0.00 85 1018.7
20260510060038 8 19 11.3 20.9 0.00 0.00 0.00 85 1018.7
20260510054554 8 38 9.7 17.7 0.00 0.00 0.00 85 1018.7
20260510053053 8 35 8.0 16.1 0.00 0.00 0.00 84 1018.7
20260510051553 8 36 4.8 22.5 0.00 0.00 0.00 84 1018.7
20260510050050 8 30 6.4 17.7 0.00 0.00 0.00 84 1018.8
20260510044539 8 30 9.7 19.3 0.00 0.00 0.00 84 1018.7
20260510043041 8 30 9.7 24.1 0.00 0.00 0.00 84 1018.7
20260510041539 8 33 6.4 19.3 0.00 0.00 0.00 84 1018.8
20260510040044 8 30 8.0 17.7 0.00 0.00 0.00 83 1018.9
20260510034607 8 34 6.4 19.3 0.00 0.00 0.00 83 1018.9
20260510033051 8 30 3.2 12.9 0.00 0.00 0.00 83 1019.0
20260510031544 8 34 11.3 19.3 0.00 0.00 0.00 84 1019.1
20260510030041 8 35 8.0 22.5 0.00 0.00 0.00 84 1019.1
20260510024555 8 36 9.7 20.9 0.00 0.00 0.00 84 1019.0
20260510023051 8 33 9.7 19.3 0.00 0.00 0.00 84 1019.1
20260510021559 8 34 3.2 17.7 0.00 0.00 0.00 84 1019.1
20260510020049 9 26 4.8 24.1 0.00 0.00 0.00 84 1019.0
20260510014551 9 24 12.9 29.0 0.00 0.00 0.00 84 1019.1
20260510013042 9 23 16.1 30.6 0.00 0.00 0.00 84 1019.0
20260510011540 9 28 14.5 33.8 0.00 0.00 0.00 84 1019.0
20260510010044 10 35 14.5 27.4 0.00 0.00 0.00 84 1019.0
20260510004556 10 34 8.0 24.1 0.00 0.00 0.00 84 1019.2
20260510003104 10 28 14.5 22.5 0.00 0.00 0.00 83 1019.2
20260510001549 10 31 9.7 27.4 0.00 0.00 0.00 82 1019.1
20260509234543 11 29 9.7 24.1 0.00 0.00 0.00 81 1018.7
20260509233041 11 37 11.3 27.4 0.00 0.00 0.00 81 1018.4
20260509231538 11 35 11.3 22.5 0.00 0.00 0.00 81 1018.5
20260509230035 11 26 14.5 27.4 0.00 0.00 0.00 81 1018.2
20260509224546 12 28 12.9 27.4 0.00 0.00 0.00 81 1018.2
20260509223046 12 35 14.5 27.4 0.00 0.00 0.00 80 1018.2
20260509221554 12 28 11.3 33.8 0.00 0.00 0.00 79 1018.3
20260509220046 13 24 16.1 29.0 0.00 0.00 0.00 78 1018.2
20260509214543 13 35 17.7 33.8 0.00 0.00 0.00 77 1018.1
20260509213036 13 29 19.3 33.8 0.00 0.00 0.00 76 1018.0
20260509211535 13 39 20.9 35.4 0.00 0.00 0.00 75 1017.7
20260509210041 14 36 16.1 33.8 0.00 0.00 0.00 76 1017.5
20260509204544 14 36 11.3 25.7 0.00 0.00 0.00 75 1017.5
20260509203045 14 34 11.3 32.2 0.00 0.00 0.00 74 1017.3
20260509201544 15 227 9.7 27.4 0.00 0.00 0.00 72 1017.3
20260509200048 15 29 20.9 32.2 0.00 0.00 0.00 67 1017.2
20260509194545 17 36 4.8 14.5 0.00 0.00 0.00 55 1017.0
20260509193037 17 34 4.8 16.1 0.00 0.00 0.00 54 1016.8
20260509191534 17 34 6.4 17.7 0.00 0.00 0.00 52 1016.8